Flag for U.S.A. Weather past 2 weeks in Arden-Arcade, California, U.S.A.

Now
57 °F

Clear.


Feels Like: 57 °F
Forecast: 61 / 86 °F
Wind: 3 mph from Southeast

Location: Mather Field

Current Time: Sep 17, 2014 at 6:47:53 AM

Latest Report: Sep 17, 2014 at 5:45 AM


Visibility: 10 mi

Pressure: 29.77 "Hg

Humidity: 67%

Dew point: 46 °F

Location of Arden-ArcadeLocation

Historic Weather in Arden-Arcade — Graph

°F

Arden-Arcade temperature yesterday

Maximum temperature yesterday: 90 °F (at 3:50 PM)
Minimum temperature yesterday: 55 °F (at 5:53 AM)
Average temperature yesterday: 73 °F

Past Weeks' High & Low Weather Summary

 TemperatureHumidityPressure
High100 °F (Sep 12, 3:45 PM)100% (Sep 3, 2:46 AM)29.98 "Hg (Sep 3, 2:46 AM)
Low48 °F (Sep 9, 4:54 AM)12% (Sep 12, 5:50 PM)29.61 "Hg (Sep 3, 6:45 PM)
Average74 °F49%29.81 "Hg
* Reported Sep 2 5:52 AM — Sep 17 5:45 AM, Arden-Arcade, Weather by CustomWeather, © 2014

Note: Actual official high and low records may vary slightly from our data, if they occured in-between our weather recording intervals... More about our weather records

Advertising

Arden-Arcade weather history for previous 24 hours

 ConditionsComfort  
Time TempWeatherWind HumidityBarometerVisibility
5:45 AM
Sep 17
57 °FClear.3 mph67%29.77 "Hg10 mi
4:50 AM59 °FClear.6 mph68%29.77 "Hg10 mi
3:55 AM63 °FClear.8 mph59%29.77 "Hg10 mi
10:59 PM
Sep 16
68 °FPassing clouds.5 mph60%29.79 "Hg10 mi
8:50 PM75 °FPassing clouds.5 mph31%29.78 "Hg10 mi
7:45 PM81 °FPassing clouds.5 mph23%29.77 "Hg10 mi
6:45 PM86 °FPassing clouds.5 mph19%29.77 "Hg10 mi
5:53 PM90 °FPassing clouds.6 mph18%29.77 "Hg10 mi
4:55 PM90 °FPassing clouds.5 mph18%29.77 "Hg10 mi
3:50 PM90 °FPassing clouds.5 mph18%29.79 "Hg10 mi
2:55 PM86 °FPassing clouds.3 mph24%29.81 "Hg10 mi
1:45 PM84 °FPassing clouds.3 mph27%29.84 "Hg10 mi
12:55 PM81 °FSunny.3 mph32%29.86 "Hg10 mi
11:50 AM77 °FSunny.3 mph39%29.89 "Hg10 mi
10:45 AM73 °FSunny.No wind50%29.90 "Hg10 mi
9:45 AM72 °FSunny.6 mph53%29.91 "Hg10 mi
8:45 AM66 °FSunny.7 mph64%29.91 "Hg10 mi
7:45 AM59 °FClear.6 mph77%29.91 "Hg10 mi
6:45 AM55 °FClear.7 mph82%29.90 "Hg10 mi
Weather by CustomWeather, © 2014

See weather overviewHow to use our weather pages